Location: Siloam Springs
(36.1881°N, 94.5403°W)
Time: 17:19:59
(UTC-05:00)

NOAA 19 - Visible Passes

Search period start: 27 May 2024 00:00
Search period end: 06 June 2024 00:00
Orbit: 839 x 859 km, 99.0° (Epoch: 27 May)

Date Brightness Start Highest point End Pass type
(mag) Time Alt. Az. Time Alt. Az. Time Alt. Az.
27 May 5.1 21:59:50 20° SSE 22:03:40 86° ENE 22:09:10 10° NNW visible
28 May 5.2 21:47:20 18° SSE 21:51:23 67° ENE 21:56:49 10° N visible
28 May 7.6 23:29:52 10° WSW 23:32:26 13° W 23:35:02 10° WNW visible
29 May 5.5 21:34:49 15° SE 21:39:08 51° ENE 21:44:25 10° N visible
29 May 7.3 23:16:47 11° SW 23:20:00 18° W 23:23:40 10° NW visible
30 May 5.8 21:22:19 12° SE 21:26:54 39° ENE 21:31:57 10° N visible
30 May 7.0 23:04:16 14° SW 23:07:35 24° W 23:11:56 10° NW visible
31 May 6.2 21:10:00 10° SE 21:14:41 30° ENE 21:19:24 10° N visible
31 May 6.6 22:51:45 17° SSW 22:55:11 31° W 23:00:01 10° NW visible
01 Jun 6.5 20:58:14 10° ESE 21:02:30 24° ENE 21:06:45 10° NNE visible
01 Jun 6.2 22:39:15 18° SSW 22:42:49 41° W 22:47:58 10° NNW visible
02 Jun 5.8 22:26:44 20° S 22:30:28 54° W 22:35:50 10° NNW visible
03 Jun 5.4 22:14:14 20° S 22:18:08 71° WSW 22:23:38 10° NNW visible
04 Jun 5.2 22:01:43 18° SSE 22:05:49 89° ENE 22:11:21 10° NNW visible
05 Jun 5.2 21:49:12 16° SSE 21:53:32 69° ENE 21:59:00 10° N visible
05 Jun 7.6 23:32:10 10° WSW 23:34:36 13° W 23:37:04 10° WNW visible
